Weather History for Elkins, WV

Change the Weather History Date:

Monday, January 6, 2014

  Actual Average Record
Temperature  
Mean Temperature 23 °F 29 °F  
Max Temperature 51 °F 39 °F 68 °F (1946)
Min Temperature -5 °F 19 °F -12 °F (1988)
Degree Days  
Heating Degree Days 42 36  
Month to date heating degree days 245 216  
Since 1 July heating degree days 2455 2507  
Cooling Degree Days 0 0  
Month to date cooling degree days 0 0  
Year to date cooling degree days 0 0  
Moisture  
Dew Point 10 °F    
Average Humidity 66    
Maximum Humidity 81    
Minimum Humidity 51    
Precipitation  
Precipitation 0.22 in 0.10 in 1.22 in (1899)
Month to date precipitation 0.45 0.60  
Year to date precipitation 0.45 0.60  
Snow  
Snow 1.20 in - - ()
Month to date snowfall 5.4  
Since 1 September snowfall 21.3  
Snow Depth 2.00 in    
Sea Level Pressure  
Sea Level Pressure 29.83 in    
Wind  
Wind Speed 12 mph (West)    
Max Wind Speed 32 mph    
Max Gust Speed 44 mph    
Visibility 5 miles    
Events Rain , Snow    
T = Trace of Precipitation, MM = Missing Value Source: NWS Daily Summary

Daily Weather History Graph

Daily Weather History Graph

Search for Another Location

Airport:

Trip Planner

Search our weather history database for the weather conditions in past years. The results will help you decide how hot, cold, wet, or windy it might be!

Date:

Astronomy

Jan. 06, 2014 Rise Set
Actual Time 7:38 AM EST 5:12 PM EST
Civil Twilight 7:08 AM EST 5:42 PM EST
Nautical Twilight 6:35 AM EST 6:15 PM EST
Astronomical Twilight 6:03 AM EST 6:47 PM EST
Moon 10:56 AM EST (1/6) 11:40 PM EST (1/6)
Length of Visible Light 10h 33m
Length of Day
9h 34m
Waxing Crescent, 34% of the Moon is Illuminated
Jan 6
Waxing Crescent
Jan 7
First Quarter
Jan 15
Full
Jan 24
Last Quarter
Jan 30
New

Hourly Weather History & Observations

Time (EST) Temp. Windchill Dew Point Humidity Pressure Visibility Wind Dir Wind Speed Gust Speed Precip Events Conditions
12:51 AM 50.0 °F - 39.9 °F 68% 29.50 in 10.0 mi South 8.1 mph 17.3 mph 0.00 in Rain Light Rain
1:51 AM 48.9 °F - 41.0 °F 74% 29.49 in 10.0 mi Variable 5.8 mph - 0.01 in Rain Light Rain
2:41 AM 48.2 °F - 42.8 °F 82% 29.52 in 8.0 mi West 27.6 mph 36.8 mph 0.06 in Rain Rain
2:51 AM 44.1 °F 35.2 °F 37.0 °F 76% 29.55 in 8.0 mi West 23.0 mph 42.6 mph 0.10 in Rain Rain
3:02 AM 42.8 °F 34.3 °F 35.6 °F 76% 29.54 in 10.0 mi WSW 19.6 mph 43.7 mph 0.01 in Rain Light Rain
3:51 AM 39.0 °F 32.3 °F 32.0 °F 76% 29.62 in 10.0 mi SW 10.4 mph 24.2 mph 0.02 in Rain Light Rain
4:01 AM 37.4 °F 30.3 °F 32.0 °F 81% 29.61 in 10.0 mi SW 10.4 mph 25.3 mph 0.01 in Rain Light Rain
4:31 AM 35.6 °F 28.6 °F 30.2 °F 81% 29.64 in 10.0 mi SW 9.2 mph - 0.03 in Snow Light Snow
4:51 AM 34.0 °F 24.6 °F 28.9 °F 82% 29.68 in 5.0 mi West 13.8 mph 23.0 mph 0.04 in Snow Light Snow
5:03 AM 33.8 °F 22.8 °F 26.6 °F 75% 29.65 in 2.5 mi West 18.4 mph 31.1 mph 0.00 in Snow Light Snow
5:14 AM 32.0 °F 22.5 °F 26.6 °F 80% 29.66 in 3.0 mi West 12.7 mph 26.5 mph 0.00 in Snow Light Snow
5:30 AM 32.0 °F 22.1 °F 26.6 °F 80% 29.67 in 2.5 mi West 13.8 mph 24.2 mph 0.01 in Snow Light Snow
5:32 AM 30.2 °F 19.3 °F 26.6 °F 86% 29.67 in 3.0 mi WSW 15.0 mph 24.2 mph 0.01 in Snow Light Snow
5:51 AM 30.9 °F 21.2 °F 25.0 °F 79% 29.71 in 6.0 mi West 12.7 mph 23.0 mph 0.01 in Snow Light Snow
6:04 AM 28.4 °F 15.4 °F 23.0 °F 80% 29.68 in 5.0 mi WNW 19.6 mph 31.1 mph 0.00 in Snow Light Snow
6:16 AM 28.4 °F 18.0 °F 21.2 °F 74% 29.70 in 5.0 mi WNW 12.7 mph 27.6 mph 0.00 in Snow Light Snow
6:28 AM 28.4 °F 17.0 °F 21.2 °F 74% 29.71 in 9.0 mi WNW 15.0 mph 25.3 mph 0.00 in Snow Light Snow
6:38 AM 28.4 °F 19.1 °F 21.2 °F 74% 29.71 in 9.0 mi NW 10.4 mph 25.3 mph 0.00 in Snow Light Snow
6:51 AM 27.0 °F 15.2 °F 21.0 °F 78% 29.76 in 8.0 mi WNW 15.0 mph 23.0 mph 0.00 in Snow Light Snow
7:28 AM 26.6 °F 18.2 °F 21.2 °F 80% 29.74 in 2.5 mi West 8.1 mph - 0.00 in Snow Light Snow
7:41 AM 24.8 °F 14.0 °F 19.4 °F 80% 29.75 in 1.8 mi West 11.5 mph - 0.00 in Snow Light Snow
7:51 AM 24.1 °F 16.0 °F 19.9 °F 84% 29.80 in 1.0 mi West 6.9 mph 16.1 mph 0.02 in Snow Light Snow
8:15 AM 24.8 °F 16.1 °F 19.4 °F 80% 29.76 in 2.0 mi West 8.1 mph - 0.01 in Snow Light Snow
8:27 AM 24.8 °F 17.9 °F 19.4 °F 80% 29.76 in 1.8 mi West 5.8 mph - 0.01 in Snow Light Snow
8:51 AM 21.9 °F 7.3 °F 16.0 °F 78% 29.84 in 1.2 mi WNW 18.4 mph 29.9 mph 0.01 in Snow Light Snow
8:58 AM 21.2 °F 10.1 °F 15.8 °F 80% 29.79 in 2.5 mi West 10.4 mph 24.2 mph 0.00 in Snow Light Snow
9:06 AM 21.2 °F 5.6 °F 15.8 °F 80% 29.79 in 4.0 mi NW 20.7 mph 27.6 mph 0.00 in Snow Light Snow
9:51 AM 21.0 °F 11.4 °F 14.0 °F 74% 29.85 in 4.0 mi WNW 8.1 mph 17.3 mph 0.00 in Snow Light Snow
10:51 AM 21.0 °F 13.4 °F 14.0 °F 74% 29.84 in 3.0 mi WSW 5.8 mph - 0.00 in Snow Light Snow
11:34 AM 19.4 °F 7.2 °F 12.2 °F 74% 29.78 in 2.0 mi WNW 11.5 mph 18.4 mph 0.00 in Snow Light Snow
11:51 AM 19.0 °F 9.0 °F 12.0 °F 74% 29.84 in 2.0 mi WNW 8.1 mph - 0.00 in Snow Light Snow
12:04 PM 17.6 °F 4.3 °F 10.4 °F 73% 29.78 in 2.0 mi WNW 12.7 mph 20.7 mph 0.00 in Snow Light Snow
12:11 PM 17.6 °F 4.3 °F 10.4 °F 73% 29.79 in 1.5 mi WNW 12.7 mph 24.2 mph 0.00 in Snow Light Snow
12:21 PM 17.6 °F 7.3 °F 10.4 °F 73% 29.79 in 3.0 mi WNW 8.1 mph 18.4 mph 0.00 in Snow Light Snow
12:33 PM 17.6 °F 9.3 °F 8.6 °F 68% 29.79 in 8.0 mi Variable 5.8 mph - 0.00 in Snow Light Snow
12:51 PM 17.1 °F 6.6 °F 8.1 °F 68% 29.84 in 7.0 mi SW 8.1 mph - 0.00 in Snow Light Snow
1:51 PM 15.1 °F 5.2 °F 6.1 °F 68% 29.86 in 5.0 mi Variable 6.9 mph 18.4 mph 0.00 in Snow Light Snow
2:03 PM 14.0 °F 2.9 °F 6.8 °F 73% 29.79 in 2.0 mi West 8.1 mph 19.6 mph 0.00 in Snow Light Snow
2:18 PM 12.2 °F -0.2 °F 6.8 °F 79% 29.81 in 2.0 mi West 9.2 mph 20.7 mph 0.00 in Snow Light Snow
2:23 PM 12.2 °F 4.3 °F 5.0 °F 73% 29.81 in 3.0 mi Variable 4.6 mph 20.7 mph 0.00 in Snow Light Snow
2:44 PM 12.2 °F -2.5 °F 3.2 °F 67% 29.82 in 2.0 mi WSW 12.7 mph 23.0 mph 0.00 in Snow Light Snow
2:51 PM 12.0 °F -5.1 °F 3.9 °F 70% 29.91 in 2.0 mi WNW 17.3 mph 24.2 mph 0.00 in Snow Light Snow
3:05 PM 10.4 °F -4.1 °F 3.2 °F 73% 29.85 in 1.0 mi WNW 11.5 mph 19.6 mph 0.00 in Snow Light Snow
3:33 PM 8.6 °F 0.1 °F 1.4 °F 73% 29.87 in 3.0 mi WNW 4.6 mph 20.7 mph 0.01 in Snow Light Snow
3:41 PM 8.6 °F 2.0 °F 1.4 °F 73% 29.88 in 4.0 mi NW 3.5 mph 17.3 mph 0.01 in Snow Light Snow
3:51 PM 9.0 °F -3.2 °F 1.0 °F 70% 29.97 in 4.0 mi WSW 8.1 mph - 0.01 in Snow Light Snow
4:51 PM 5.0 °F -15.2 °F -5.1 °F 63% 30.03 in 4.0 mi WNW 19.6 mph 26.5 mph 0.00 in Snow Light Snow
5:38 PM 3.2 °F -13.1 °F -9.4 °F 56% 29.94 in 10.0 mi West 11.5 mph 24.2 mph 0.00 in   Mostly Cloudy
5:51 PM 1.9 °F -18.7 °F -11.0 °F 55% 30.06 in 10.0 mi West 18.4 mph 29.9 mph 0.00 in   Scattered Clouds
6:51 PM 1.0 °F -18.7 °F -13.0 °F 52% 30.11 in 10.0 mi WNW 16.1 mph 20.7 mph 0.00 in   Partly Cloudy
7:08 PM 1.4 °F -14.5 °F -11.2 °F 56% 29.99 in 10.0 mi West 10.4 mph 23.0 mph 0.00 in   Mostly Cloudy
7:25 PM -0.4 °F -21.2 °F -7.6 °F 72% 30.00 in 1.8 mi NW 17.3 mph 25.3 mph 0.00 in Snow Light Snow
7:32 PM -0.4 °F -21.2 °F -9.4 °F 66% 30.00 in 3.0 mi WNW 17.3 mph 25.3 mph 0.00 in Snow Light Snow
7:51 PM -0.9 °F -19.1 °F -11.9 °F 60% 30.14 in 10.0 mi WNW 12.7 mph 20.7 mph 0.00 in   Overcast
8:51 PM -2.0 °F -20.5 °F -11.0 °F 66% 30.17 in 6.0 mi West 12.7 mph 20.7 mph 0.00 in Snow Light Snow
9:51 PM -2.9 °F -17.7 °F -11.0 °F 68% 30.18 in 4.0 mi WNW 8.1 mph - 0.00 in Snow Light Snow
10:45 PM -2.2 °F -18.0 °F -11.2 °F 66% 30.05 in 2.0 mi West 9.2 mph - 0.00 in Snow Light Snow
10:51 PM -2.9 °F -17.7 °F -11.0 °F 68% 30.19 in 1.8 mi WNW 8.1 mph - 0.00 in Snow Light Snow
11:15 PM -4.0 °F -21.2 °F -11.2 °F 71% 30.05 in 1.2 mi West 10.4 mph 18.4 mph 0.00 in Snow Light Snow
11:23 PM -4.0 °F -23.7 °F -11.2 °F 71% 30.05 in 2.0 mi West 13.8 mph 19.6 mph 0.00 in Snow Light Snow
11:31 PM -4.0 °F -17.8 °F -11.2 °F 71% 30.05 in 3.0 mi West 6.9 mph 19.6 mph 0.00 in Snow Light Snow
11:41 PM -4.0 °F -21.2 °F -11.2 °F 71% 30.05 in 2.5 mi West 10.4 mph - 0.00 in Snow Light Snow
11:51 PM -4.0 °F -24.5 °F -13.0 °F 65% 30.19 in 3.0 mi WSW 15.0 mph 18.4 mph 0.00 in Snow Light Snow
11:58 PM -5.8 °F -25.2 °F -14.8 °F 65% 30.06 in 5.0 mi WSW 12.7 mph 23.0 mph 0.00 in Snow Light Snow